| time (UTC) | temp F | wind direction | speed MPH | gust MPH | rain 1hr in | rain 24hr in | rain mn in | humidity % | barometer mb |
| 20260904101546 | 71 | 276 | 0.0 | 1.0 | 0.00 | 0.00 | 0.00 | 94 | 1013.8 |
| 20260904100041 | 71 | 272 | 0.0 | 2.0 | 0.00 | 0.00 | 0.00 | 94 | 1013.9 |
| 20260904094541 | 71 | 272 | 0.0 | 2.0 | 0.00 | 0.00 | 0.00 | 93 | 1013.9 |
| 20260904093039 | 71 | 262 | 0.0 | 0.0 | 0.00 | 0.00 | 0.00 | 93 | 1013.7 |
| 20260904091539 | 71 | 262 | 0.0 | 0.0 | 0.00 | 0.00 | 0.00 | 92 | 1013.6 |
| 20260904090037 | 72 | 262 | 0.0 | 2.0 | 0.00 | 0.00 | 0.00 | 92 | 1013.4 |
| 20260904084536 | 72 | 262 | 0.0 | 2.0 | 0.00 | 0.00 | 0.00 | 92 | 1013.4 |
| 20260904083050 | 72 | 262 | 0.0 | 1.0 | 0.00 | 0.00 | 0.00 | 92 | 1013.4 |
| 20260904081534 | 72 | 262 | 1.0 | 3.0 | 0.00 | 0.00 | 0.00 | 92 | 1013.4 |
| 20260904080034 | 72 | 264 | 0.0 | 0.0 | 0.00 | 0.00 | 0.00 | 92 | 1013.3 |
| 20260904074536 | 72 | 264 | 0.0 | 0.0 | 0.00 | 0.00 | 0.00 | 92 | 1013.3 |
| 20260904073032 | 72 | 264 | 0.0 | 0.0 | 0.00 | 0.00 | 0.00 | 91 | 1013.3 |
| 20260904071533 | 73 | 264 | 0.0 | 0.0 | 0.00 | 0.00 | 0.00 | 91 | 1013.5 |
| 20260904070029 | 73 | 264 | 0.0 | 0.0 | 0.00 | 0.00 | 0.00 | 90 | 1013.5 |
| 20260904064528 | 73 | 264 | 0.0 | 2.0 | 0.00 | 0.00 | 0.00 | 90 | 1013.5 |
| 20260904063038 | 74 | 264 | 0.0 | 2.0 | 0.00 | 0.00 | 0.00 | 89 | 1013.5 |
| 20260904061524 | 74 | 264 | 0.0 | 0.0 | 0.00 | 0.00 | 0.00 | 89 | 1013.6 |
| 20260904060026 | 74 | 242 | 1.0 | 3.0 | 0.00 | 0.00 | 0.00 | 88 | 1013.9 |
| 20260904054521 | 74 | 289 | 0.0 | 0.0 | 0.00 | 0.00 | 0.00 | 88 | 1013.9 |
| 20260904053025 | 74 | 289 | 0.0 | 0.0 | 0.00 | 0.00 | 0.00 | 88 | 1014.0 |
| 20260904051517 | 74 | 289 | 0.0 | 0.0 | 0.00 | 0.00 | 0.00 | 88 | 1014.1 |
| 20260904050016 | 75 | 289 | 0.0 | 0.0 | 0.00 | 0.00 | 0.00 | 87 | 1014.2 |
| 20260904044530 | 75 | 289 | 0.0 | 0.0 | 0.00 | 0.00 | 0.00 | 87 | 1014.3 |
| 20260904043115 | 75 | 289 | 0.0 | 1.0 | 0.00 | 0.00 | 0.00 | 87 | 1014.2 |
| 20260904041510 | 76 | 289 | 0.0 | 1.0 | 0.00 | 0.00 | 0.00 | 87 | 1014.2 |
| 20260904040006 | 76 | 289 | 0.0 | 0.0 | 0.00 | 0.00 | 0.00 | 87 | 1014.0 |
| 20260904034505 | 76 | 289 | 0.0 | 1.0 | 0.00 | 0.00 | 0.00 | 87 | 1014.2 |
| 20260904033005 | 77 | 289 | 0.0 | 2.0 | 0.00 | 0.00 | 0.00 | 84 | 1014.5 |
| 20260904031504 | 77 | 289 | 0.0 | 2.0 | 0.00 | 0.00 | 0.00 | 83 | 1014.7 |
| 20260904030004 | 77 | 289 | 1.0 | 2.0 | 0.00 | 0.00 | 0.00 | 85 | 1014.6 |
| 20260904024505 | 78 | 289 | 0.0 | 1.0 | 0.00 | 0.00 | 0.00 | 84 | 1014.5 |
| 20260904023003 | 78 | 289 | 1.0 | 2.0 | 0.00 | 0.00 | 0.00 | 82 | 1014.4 |
| 20260904021502 | 79 | 316 | 0.0 | 2.0 | 0.00 | 0.00 | 0.00 | 80 | 1014.4 |
| 20260904020002 | 79 | 259 | 0.0 | 1.0 | 0.00 | 0.00 | 0.00 | 81 | 1014.3 |
| 20260904014504 | 80 | 259 | 0.0 | 0.0 | 0.00 | 0.00 | 0.00 | 80 | 1013.8 |
| 20260904013001 | 81 | 259 | 0.0 | 0.0 | 0.00 | 0.00 | 0.00 | 77 | 1013.7 |
| 20260904011600 | 81 | 259 | 0.0 | 2.0 | 0.00 | 0.00 | 0.00 | 77 | 1013.4 |
| 20260904010103 | 82 | 256 | 1.0 | 2.0 | 0.00 | 0.00 | 0.00 | 73 | 1013.3 |
| 20260904004603 | 83 | 256 | 1.0 | 2.0 | 0.00 | 0.00 | 0.00 | 72 | 1013.0 |
| 20260904003059 | 85 | 100 | 0.0 | 1.0 | 0.00 | 0.00 | 0.00 | 65 | 1013.0 |
| 20260904001601 | 87 | 100 | 0.0 | 2.0 | 0.00 | 0.00 | 0.00 | 63 | 1013.0 |
| 20260904000134 | 87 | 100 | 1.0 | 3.0 | 0.00 | 0.00 | 0.00 | 63 | 1012.7 |
| 20260903234558 | 87 | 89 | 0.0 | 5.0 | 0.00 | 0.00 | 0.00 | 67 | 1012.5 |
| 20260903233101 | 91 | 77 | 0.0 | 2.0 | 0.00 | 0.00 | 0.00 | 54 | 1012.4 |
| 20260903231557 | 92 | 82 | 1.0 | 4.0 | 0.00 | 0.00 | 0.00 | 52 | 1012.3 |
| 20260903224607 | 94 | 39 | 1.0 | 5.0 | 0.00 | 0.00 | 0.00 | 47 | 1012.2 |
| 20260903223054 | 93 | 52 | 2.0 | 5.0 | 0.00 | 0.00 | 0.00 | 47 | 1012.3 |
| 20260903221554 | 93 | 65 | 2.0 | 4.0 | 0.00 | 0.00 | 0.00 | 49 | 1012.4 |
| 20260903220109 | 94 | 94 | 3.0 | 6.0 | 0.00 | 0.00 | 0.00 | 46 | 1012.4 |
| 20260903214552 | 94 | 41 | 3.0 | 7.0 | 0.00 | 0.00 | 0.00 | 48 | 1012.3 |
| 20260903213052 | 95 | 79 | 2.0 | 5.0 | 0.00 | 0.00 | 0.00 | 48 | 1012.5 |
| 20260903211615 | 96 | 2 | 2.0 | 6.0 | 0.00 | 0.00 | 0.00 | 46 | 1012.4 |
| 20260903210054 | 96 | 47 | 6.0 | 9.0 | 0.00 | 0.00 | 0.00 | 48 | 1012.6 |
| 20260903204548 | 94 | 85 | 4.0 | 7.0 | 0.00 | 0.00 | 0.00 | 48 | 1012.8 |
| 20260903203047 | 96 | 344 | 6.0 | 11.0 | 0.00 | 0.00 | 0.00 | 46 | 1012.9 |
| 20260903201546 | 96 | 345 | 3.0 | 10.0 | 0.00 | 0.00 | 0.00 | 45 | 1013.1 |
| 20260903200044 | 96 | 33 | 6.0 | 9.0 | 0.00 | 0.00 | 0.00 | 45 | 1013.2 |
| 20260903194546 | 95 | 19 | 5.0 | 11.0 | 0.00 | 0.00 | 0.00 | 46 | 1013.3 |
| 20260903193041 | 96 | 295 | 4.0 | 8.0 | 0.00 | 0.00 | 0.00 | 47 | 1013.5 |
| 20260903191539 | 95 | 36 | 5.0 | 10.0 | 0.00 | 0.00 | 0.00 | 47 | 1013.7 |
| 20260903190037 | 95 | 339 | 3.0 | 9.0 | 0.00 | 0.00 | 0.00 | 49 | 1014.0 |
| 20260903184537 | 95 | 49 | 1.0 | 9.0 | 0.00 | 0.00 | 0.00 | 50 | 1014.0 |
| 20260903183034 | 94 | 45 | 1.0 | 7.0 | 0.00 | 0.00 | 0.00 | 51 | 1014.3 |
| 20260903181532 | 94 | 79 | 1.0 | 9.0 | 0.00 | 0.00 | 0.00 | 50 | 1014.4 |
| 20260903180029 | 94 | 70 | 3.0 | 10.0 | 0.00 | 0.00 | 0.00 | 53 | 1014.6 |
| 20260903174549 | 94 | 44 | 3.0 | 7.0 | 0.00 | 0.00 | 0.00 | 53 | 1014.8 |
| 20260903173028 | 94 | 109 | 3.0 | 6.0 | 0.00 | 0.00 | 0.00 | 54 | 1015.0 |
| 20260903171529 | 93 | 64 | 3.0 | 5.0 | 0.00 | 0.00 | 0.00 | 57 | 1015.2 |
| 20260903170024 | 92 | 127 | 2.0 | 10.0 | 0.00 | 0.00 | 0.00 | 55 | 1015.5 |
| 20260903164522 | 92 | 348 | 2.0 | 6.0 | 0.00 | 0.00 | 0.00 | 59 | 1015.6 |
| 20260903163020 | 91 | 73 | 3.0 | 8.0 | 0.00 | 0.00 | 0.00 | 59 | 1015.7 |
| 20260903161523 | 91 | 118 | 3.0 | 7.0 | 0.00 | 0.00 | 0.00 | 64 | 1015.8 |
| 20260903160018 | 91 | 343 | 2.0 | 6.0 | 0.00 | 0.00 | 0.00 | 61 | 1016.0 |
| 20260903154515 | 89 | 46 | 4.0 | 6.0 | 0.00 | 0.00 | 0.00 | 63 | 1016.1 |
| 20260903153013 | 88 | 111 | 2.0 | 7.0 | 0.00 | 0.00 | 0.00 | 67 | 1016.1 |
| 20260903151511 | 87 | 66 | 3.0 | 7.0 | 0.00 | 0.00 | 0.00 | 67 | 1016.1 |
| 20260903150010 | 87 | 37 | 4.0 | 6.0 | 0.00 | 0.00 | 0.00 | 68 | 1016.2 |
| 20260903144507 | 86 | 70 | 4.0 | 7.0 | 0.00 | 0.00 | 0.00 | 68 | 1016.1 |
| 20260903143005 | 84 | 112 | 4.0 | 8.0 | 0.00 | 0.00 | 0.00 | 71 | 1016.1 |
| 20260903141504 | 84 | 86 | 4.0 | 6.0 | 0.00 | 0.00 | 0.00 | 72 | 1016.1 |
| 20260903134559 | 82 | 310 | 1.0 | 4.0 | 0.00 | 0.00 | 0.00 | 79 | 1016.2 |
| 20260903133056 | 80 | 60 | 0.0 | 4.0 | 0.00 | 0.00 | 0.00 | 82 | 1016.2 |
| 20260903131557 | 79 | 55 | 1.0 | 3.0 | 0.00 | 0.00 | 0.00 | 85 | 1016.3 |
| 20260903130059 | 78 | 55 | 1.0 | 4.0 | 0.00 | 0.00 | 0.00 | 86 | 1016.5 |
| 20260903124543 | 76 | 28 | 0.0 | 2.0 | 0.00 | 0.00 | 0.00 | 90 | 1016.4 |
| 20260903123040 | 75 | 14 | 0.0 | 2.0 | 0.00 | 0.00 | 0.00 | 92 | 1016.3 |
| 20260903121540 | 73 | 274 | 0.0 | 1.0 | 0.00 | 0.00 | 0.00 | 94 | 1016.2 |
| 20260903120036 | 72 | 274 | 0.0 | 2.0 | 0.00 | 0.00 | 0.00 | 95 | 1016.1 |
| 20260903114534 | 70 | 274 | 0.0 | 2.0 | 0.00 | 0.00 | 0.00 | 95 | 1016.0 |
| 20260903113032 | 70 | 274 | 1.0 | 2.0 | 0.00 | 0.00 | 0.00 | 95 | 1015.8 |
| 20260903111554 | 70 | 274 | 0.0 | 0.0 | 0.00 | 0.00 | 0.00 | 95 | 1015.6 |
| 20260903110030 | 70 | 274 | 0.0 | 0.0 | 0.00 | 0.00 | 0.00 | 95 | 1015.5 |
| 20260903104528 | 70 | 274 | 0.0 | 0.0 | 0.00 | 0.00 | 0.00 | 95 | 1015.4 |
| 20260903103026 | 70 | 274 | 0.0 | 0.0 | 0.00 | 0.00 | 0.00 | 94 | 1015.1 |